www.pogodaiklimat.ru

Погода и климат >> Архив погоды >> Португалия >> Санта-Мария


ПОГОДА в Санта-Марии

  • Прогноз погоды в Санта-Марии
  • Монитор погоды в Санта-Марии

АРХИВ ПОГОДЫ в Санта-Марии

Время (UTC), дата Ветер
(напр.,м/с)
 
Видим.   Явления Облачность Т
(С)
Тd
(С)
f
(%)
Тe
(С)
Тes
(С)
Комфортность P
(гПа)
Po
(гПа)
Тmin
(С)
Tmax
(С)
R
(мм)
R24
(мм)
S
(см)
09 12.02 Ю 8
{12}
12 км 9/9 210 м
[Cu Sc]
+16.7 +16 +16 1019.6 1008.8
12 12.02 нст 10 15 км в посл. час ливневой дождь 6/6 180 м
[Cu Sc]
+17.3 +16 +16 1019.9 1009.1
15 12.02 нст 6-9
{10}
20 км 8/6 180 м
[Cu Sc Ci fib]
+18.2 +18 +19 1019.4 1008.6
18 12.02 20 км н/о +17.1 1019.0 1008.2 +18.9
21 12.02 Ю 5 20 км 5/4 270 м
[Cu Sc Ci fib]
+16.0 +15 +15 1019.4 1008.6
00 13.02 С 7 25 км 6/6 180 м
[Cu Sc]
+15.8 -28.4 3 +15 +15 1019.1 1008.3
03 13.02 Ю 8 25 км 3/3 180 м
[Cu Sc]
+15.9 +15 +15 1017.3 1006.5
06 13.02 нст 8 25 км 6/6 180 м
[Cu Sc]
+15.7 +14 +14 1015.0 1004.2 +15.5
09 13.02 нст 9 25 км 9/9 180 м
[Cu Sc]
+16.0 +14 +14 1013.1 1002.3
12 13.02 20 км н/о +17.3 1010.7 1000.0
15 13.02 12 км н/о +17.7 1006.7 996.0
18 13.02 Ю 16 12 км дымка 9/9 150 м
[Cu Sc Ac trans Ci fib]
+17.6 +16 +16 1002.4 991.8 +18.4
21 13.02 Ю 10
{26}
н/о {ливн. осадки} н/о +13.6 +11 +11 1001.2 990.4
00 14.02 З 11 10 км {ливн. осадки} 9/6 720 м
[Cu Sc Ac trans Ci fib]
+13.7 +13.7 100 +10 +10 1002.5 991.8 10
03 14.02 З 7
{11}
12 км 8/4 480 м
[Cu Sc Ac lent]
+12.6 +12.6 100 +10 +10 1004.0 993.2
06 14.02 С 7
{17}
н/о н/о +10.7 -32.9 3 +8 +8 1005.3 994.4 +9.4 16
09 14.02 С 1
{13}
12 км 9/9 300 м
[]
+10.0 +10.0 100 +9 +9 1009.1 998.2
12 14.02 С 4-8
{11}
н/о н/о +12.6 +11.2 91 +11 +11 1011.7 1000.8 6
15 14.02 С 7-11
{11}
н/о н/о +13.8 +6.8 63 +12 +12 1012.7 1001.9
18 14.02 С 8-13
{13}
н/о н/о +13.7 +6.5 62 +11 +11 1015.0 1004.1 +15.2 6
21 14.02 С 7
{13}
н/о н/о +10.8 +10.7 99 +7 +7 1018.6 1007.6
00 15.02 С 5
{10}
н/о н/о +11.3 +7.3 76 +9 +9 1021.4 1010.3 0.8
03 15.02 С 6
{11}
н/о н/о +11.0 +7.9 81 +8 +8 1023.1 1012.0
06 15.02 С 5
{9}
н/о н/о +11.1 +5.5 68 +9 +9 1024.2 1013.1 +9.7 1
09 15.02 С 4
{7}
н/о н/о +11.3 +5.9 69 +9 +9 1026.3 1015.2
12 15.02 С 5-8
{8}
н/о н/о +14.1 +5.5 56 +13 +13 1027.4 1016.5
15 15.02 С 4-6
{6}
н/о н/о +15.2 +6.1 55 +14 +14 1026.7 1015.7
18 15.02 С 4
{6}
н/о н/о +13.9 +6.3 60 +13 +13 1026.2 1015.3 +15.6
21 15.02 С 5
{8}
н/о н/о +13.5 +6.9 64 +12 +12 1026.5 1015.5
00 16.02 С 6-9
{9}
н/о н/о +14.6 +9.1 70 +13 +13 1026.3 1015.3
03 16.02 З 7-11
{12}
28 км 9/9 630 м
[Sc]
+15.4 +11.8 79 +14 +14 1024.5 1013.6
06 16.02 ЮЗ 6-10
{12}
28 км 9/9 420 м
[Cu Sc]
+15.4 +14 +14 1023.1 1012.2 +13.0
09 16.02 ЮЗ 8-12
{12}
28 км 9/9 360 м
[Cu Sc]
+16.1 +15 +15 1022.8 1011.9
12 16.02 СЗ 5-8
{13}
25 км {дождь} 9/9 270 м
[Cu Sc]
+14.9 +14 +14 1023.8 1012.9 0.8
15 16.02 З 7-11
{11}
25 км {дождь} 9/8 270 м
[Cu Sc Ac As]
+15.6 +14 +15 1022.8 1011.9
18 16.02 СЗ 6
{9}
9000 м дымка {дождь} 8/6 660 м
[Cu Sc Ac trans Ci fib]
+16.2 +12.1 77 +15 +15 1023.6 1012.7 +17.4 0.9
21 16.02 С 5
{9}
20 км 3/3 800 м
[Cu Sc Ci fib]
+13.6 +8.3 70 +12 +12 1025.5 1014.5
00 17.02 нст 6 25 км 8/8 840 м
[Cu Sc Ci fib]
+13.7 +7.8 68 +12 +12 1026.3 1015.3
03 17.02 нст 8 25 км 8/8 840 м
[Cu Sc Ci fib]
+13.7 +5.9 59 +11 +11 1027.3 1016.3
06 17.02 С 7-11
{11}
25 км 9/5 900 м
[Cu Sc Ac trans Ci fib]
+13.3 +11 +11 1027.0 1015.9 +12.9
09 17.02 С 7 30 км 5/5 900 м
[Cu Sc]
+13.1 +5.5 60 +11 +11 1028.7 1017.7
12 17.02 С 7 60 км 1/1 1020 м
[Cu Sc]
+15.6 +5.5 51 +14 +16 1030.2 1019.2
15 17.02 нст 6
{9}
60 км 4/4 1080 м
[Cu Sc]
+16.1 +6.8 54 +15 +17 1029.4 1018.4
18 17.02 С 5 н/о н/о +14.7 +4.9 52 +13 +13 1029.9 1018.9 +17.1
21 17.02
{6}
50 км н/о +12.2 +5.3 63 1031.0 1019.9
00 18.02
{5}
30 км н/о +11.5 +4.3 61 1031.2 1020.1
03 18.02 Ю 2 30 км 6/6 1080 м
[Cu Sc]
+10.9 +4.4 64 +10 +10 1030.8 1019.7
06 18.02 ЮВ 2 60 км 4/4 1260 м
[Sc]
+11.0 +4.8 66 +10 +10 1029.2 1018.1 +9.8
09 18.02 ЮЗ 3
{5}
60 км 4/4 1200 м
[Sc Ci fib]
+12.6 +5.0 60 +11 +12 1029.5 1018.4
12 18.02 нст 5-7
{8}
50 км 6/6 1200 м
[Cb calv]
+14.5 +6.3 58 +13 +15 1028.8 1017.8
15 18.02 нст 7 50 км 8/6 1140 м
[Cb calv Ci fib]
+15.4 +7.5 59 +14 +15 1026.3 1015.4
18 18.02 30 км н/о +14.9 +8.2 64 1025.0 1014.0 +17.0
21 18.02 30 км н/о +14.7 +8.7 67 1024.9 1014.0
00 19.02 Ю 9 30 км 8/8 840 м
[Cu Sc Ac trans Ci fib]
+14.9 +9.7 71 +13 +13 1023.3 1012.3
03 19.02 нст 10
{15}
30 км 9/8 800 м
[Cu Sc Ac trans Ci fib]
+15.6 +10.6 72 +13 +13 1020.9 1010.1
06 19.02 нст 11 30 км 9/6 600 м
[Cu Sc Ac trans Ci fib]
+15.7 +12.2 80 +13 +13 1018.4 1007.6 +14.4

 

Местоположение метеостанции Санта-Мария (Португалия): широта 36.97 долгота -25.16 высота над уровнем моря 100 м.

В архиве по умолчанию представлена погода в Санта-Марии за последнюю неделю. Архивные данные за месяц целиком и за предыдущие месяцы, начиная с января 2011 года, Вы можете получить, выбрав интересующий диапазон дат из раскрывающегося списка и нажав кнопку "Ввод!".


*Определитесь, кто Вы:
робот инопланетянин человек

Внимание! Время в таблицах - всемирное. Для получения местного времени необходимо прибавить поправку, которая равна 0 ч.

Смотрите также архив погоды в соседних городах и на ближайших метеорологических станциях:

Погода в Понта-Делгаде (Португалия) (97 км)
Погода в Ангра-ду-Эроижму (Португалия) (261 км)
Погода в Аэропорту Лажеша (Португалия) (263 км)
Погода на Острове Грасьоса (Португалия) (344 км)
Погода в Орте (Португалия) (350 км)
Погода в Каштелу-Бранку (Португалия) (357 км)
Погода на Флошише (Португалия) (590 км)
Погода в Финшале (Португалия) (895 км)
Погода в Санта-Катарине (Португалия) (903 км)
Погода на Порту-Санту (Португалия) (912 км)

Пояснения к столбцам:

Ветер - указаны скорость ветра в м/с - средняя за 10 мин, порывы в срок и между сроками (в фигурных скобках) и направление, откуда дует ветер: С - северный, СВ - северо-восточный, В - восточный, ЮВ - юго-восточный, Ю - южный, ЮЗ - юго-западный, З - западный, СЗ - северо-западный.
Видимость - горизонтальная дальность видимости в метрах или километрах. При видимости от 1 до 10 км при отсутствии осадков обычно наблюдается дымка, при ухудшении видимости до 1 км и менее - туман. В сухую погоду видимость может ухудшаться дымом, пылью или мглою.
Явления - указаны атмосферные явления, наблюдавшиеся в срок или в последний час перед сроком; фигурными скобками обозначены явления, наблюдавшиеся между сроками (за 1-3 часа до срока); квадратными скобками обозначены град или гололедные отложения с указанием их диаметра в мм.
Облачность - указаны через наклонную черту общая и нижняя облачность в баллах и высота нижней границы облаков в метрах; квадратными скобками обозначены формы облаков: Ci - перистые, Cs - перисто-слоистые, Cc - перисто-кучевые, Ac - высококучевые, As - высокослоистые, Sc - слоисто-кучевые, Ns - слоисто-дождевые, Cu - кучевые, Cb - кучево-дождевые. Подробнее классификацию облаков см. в Атласе облаков (PDF).
T - Температура воздуха - температура, измеренная на высоте 2 м над землей.
Td - Температура точки росы - температура, при понижении до которой содержащийся в воздухе водяной пар достигнет насыщения.
f - Относительная влажность воздуха - влажноcть воздуха, измеренная на высоте 2 м над землей.
Te - Эффективная температура - температура, которую ощущает одетый по сезону человек в тени. Характеристика душности погоды. При расчете учитывается влияние влажности воздуха и скорости ветра на теплоощущения человека.
Tes - Эффективная температура на солнце - температура, которую ощущает человек, с поправкой на солнечный нагрев. Характеристика знойности погоды. Зависит от высоты солнца над горизонтом, облачности и скорости ветра. Ночью, в пасмурную погоду, а также при ветре 12 м/с и более поправка равна нулю.
P - Атмосферное давление - приведенное к уровню моря атмосферное давление.
Po - Атмосферное давление - измеренное на уровне метеостанции атмосферное давление.
Tmin - Минимальная температура - минимум температуры воздуха на высоте 2 м над землей.
Tmax - Максимальная температура - максимум температуры воздуха на высоте 2 м над землей.
R - Количество осадков - Количество выпавших осадков за период времени, мм. При наведении курсора мыши на число - период времени, за который выпало указанное количество осадков.
R24 - Количество осадков - Количество выпавших осадков за 24 часа, мм.
S - Снежный покров - Высота снежного покрова, см. При наведении курсора мыши на число - состояние снежного покрова и степень покрытия местности в баллах.